Find Geely Xingzuo 03 zu 09 xing

NORAD ID: 61019 Int'l Des: 2024-159 Owner: GEESP Country: CN Constellation: geesatcom operational
LEOCIRCULAR

Current View

Loading 3D Globe...

About Geely Xingzuo 03 zu 09 xing

Description loading...

Upcoming Passes

Passes for default location (London). Set your location on the main map for personalized predictions.

Altitude History

Loading altitude history...

Two-Line Element Set

1 61019U 24159J 26151.49483223 .00002781 00000-0 35543-3 0 9999
2 61019 49.9947 160.1223 0022351 354.6693 5.4004 14.84125935 94294
Epoch: May 31, 2026 • Age: 11 hours

Current Status

Altitude 601.3 km
Velocity 7.57 km/s
Sub-Earth Point -0.07°S, 79.39°W
Launch Date Sep 5, 2024
Age 1.7 years
Type other

Technical Details

Classification Payload
Mass 130.00 kg
Dry Mass 130.00 kg
Total Mass 130.00 kg
Length 1.00 m
Diameter 0.50 m
Span 2.00 m
Shape Box + 2 pan
Manufacturer GWCG
Bus Type GPS100
Phase Status In Orbit
Owner/State GEESP/CN

Most Searched